Location: Sungai Bunut
(2.6333°N, 113.7333°E)
Time: 14:05:38
(UTC+00:00)

Courier 1B Rocket - All Passes

Search period start: 03 December 2023 00:00
Search period end: 13 December 2023 00:00
Orbit: 920 x 1201 km, 28.2° (Epoch: 02 December)

Date Brightness Start Highest point End Pass type
(mag) Time Alt. Az. Time Alt. Az. Time Alt. Az.
03 Dec - 01:36:06 10° WSW 01:43:25 88° SE 01:50:09 10° ENE daylight
03 Dec - 03:31:24 10° W 03:37:03 27° NNW 03:42:25 10° NNE daylight
03 Dec - 11:11:27 10° NNW 11:16:59 30° NNE 11:22:49 10° E visible
03 Dec - 13:03:55 10° WNW 13:10:33 77° SSW 13:17:45 10° SE visible
03 Dec - 14:59:04 10° WSW 15:04:28 23° SSW 15:10:09 10° SSE night (unlit)
03 Dec - 22:42:52 10° SSW 22:47:58 19° SSE 22:52:54 10° ESE daylight
04 Dec - 00:34:46 10° SW 00:42:08 60° SSE 00:48:57 10° ENE daylight
04 Dec - 02:29:09 10° W 02:35:47 41° NNW 02:41:57 10° NE daylight
04 Dec - 04:27:15 10° NW 04:29:54 12° NNW 04:32:30 10° N daylight
04 Dec - 10:11:11 10° NNW 10:15:41 20° NNE 10:20:20 10° ENE daylight
04 Dec - 12:02:56 10° NW 12:09:23 71° NNE 12:16:18 10° ESE visible
04 Dec - 13:57:02 10° W 14:03:02 33° SSW 14:09:26 10° SE visible
04 Dec - 15:56:27 10° SSW 15:57:36 10° SSW 15:58:45 10° S night (unlit)
04 Dec - 21:42:52 10° S 21:46:15 13° SSE 21:49:35 10° SE visible
04 Dec - 23:33:41 10° SW 23:40:46 41° SSE 23:47:25 10° E daylight
05 Dec - 01:27:14 10° WSW 01:34:30 62° NNW 01:41:16 10° NE daylight
05 Dec - 03:23:46 10° WNW 03:28:24 19° NNW 03:32:50 10° NNE daylight
05 Dec - 09:11:20 10° N 09:14:16 13° NNE 09:17:15 10° NE daylight
05 Dec - 11:02:11 10° NW 11:08:13 46° NNE 11:14:36 10° E visible
05 Dec - 12:55:25 10° WNW 13:01:43 49° SSW 13:08:30 10° SE visible
05 Dec - 14:52:05 10° WSW 14:55:52 15° SSW 14:59:48 10° S night (unlit)
05 Dec - 22:32:49 10° SSW 22:39:17 28° SSE 22:45:28 10° E daylight
06 Dec - 00:25:36 10° WSW 00:33:13 89° SSE 00:40:18 10° ENE daylight
06 Dec - 02:21:01 10° W 02:26:59 28° NNW 02:32:38 10° NNE daylight
06 Dec - 10:01:39 10° NNW 10:07:02 30° NNE 10:12:36 10° E daylight
06 Dec - 11:54:09 10° WNW 12:00:32 75° SSW 12:07:22 10° SE visible
06 Dec - 13:49:23 10° WSW 13:54:20 21° SSW 13:59:33 10° SSE visible
06 Dec - 21:32:16 10° SSW 21:37:41 20° SSE 21:42:58 10° ESE visible
06 Dec - 23:24:14 10° SW 23:31:52 62° SSE 23:39:03 10° ENE daylight
07 Dec - 01:18:42 10° W 01:25:38 41° NNW 01:32:07 10° NE daylight
07 Dec - 03:16:47 10° NW 03:19:52 13° NNW 03:22:53 10° N daylight
07 Dec - 09:01:20 10° NNW 09:05:45 20° NNE 09:10:15 10° ENE daylight
07 Dec - 10:53:09 10° NW 10:59:24 72° NNE 11:06:00 10° ESE visible
07 Dec - 12:47:19 10° W 12:52:58 31° SSW 12:58:57 10° SSE visible
07 Dec - 20:32:15 10° S 20:35:57 14° SSE 20:39:37 10° SE visible
07 Dec - 22:23:08 10° SW 22:30:26 42° SSE 22:37:27 10° E daylight
08 Dec - 00:16:44 10° WSW 00:24:17 62° NNW 00:31:22 10° NE daylight
08 Dec - 02:13:19 10° WNW 02:18:18 19° NNW 02:23:04 10° NNE daylight
08 Dec - 08:01:22 10° N 08:04:21 14° NNE 08:07:20 10° NE daylight
08 Dec - 09:52:21 10° NW 09:58:17 46° NNE 10:04:25 10° E daylight
08 Dec - 11:45:40 10° WNW 11:51:43 47° SSW 11:58:08 10° SE visible
08 Dec - 13:42:37 10° SW 13:45:47 14° SSW 13:49:02 10° S visible
08 Dec - 21:22:18 10° SSW 21:28:56 29° SSE 21:35:24 10° E visible
08 Dec - 23:15:06 10° WSW 23:22:55 89° NNW 23:30:20 10° ENE daylight
09 Dec - 01:10:32 10° W 01:16:49 28° NNW 01:22:47 10° NNE daylight
09 Dec - 08:51:45 10° NNW 08:57:07 30° NNE 09:02:34 10° E daylight
09 Dec - 10:44:21 10° WNW 10:50:35 72° SSW 10:57:06 10° SE visible
09 Dec - 12:39:45 10° WSW 12:44:17 20° SSW 12:49:02 10° SSE visible
09 Dec - 20:21:48 10° SSW 20:27:20 21° SSE 20:32:50 10° ESE visible
09 Dec - 22:13:45 10° SW 22:21:31 64° SSE 22:28:59 10° ENE daylight
10 Dec - 00:08:12 10° W 00:15:22 42° NNW 00:22:11 10° NE daylight
10 Dec - 02:06:11 10° NW 02:09:46 14° NNW 02:13:14 10° N daylight
10 Dec - 07:51:20 10° NNW 07:55:51 20° NNE 08:00:21 10° ENE daylight
10 Dec - 09:43:18 10° NW 09:49:30 74° NNE 09:55:52 10° ESE daylight
10 Dec - 11:37:37 10° W 11:42:59 29° SSW 11:48:35 10° SSE visible
10 Dec - 19:21:52 10° S 19:25:37 14° SSE 19:29:24 10° SE visible
10 Dec - 21:12:41 10° SW 21:20:03 44° SSE 21:27:19 10° E visible
10 Dec - 23:06:15 10° WSW 23:13:57 61° NNW 23:21:20 10° NE daylight
11 Dec - 01:02:48 10° WNW 01:08:07 20° NNW 01:13:14 10° NNE daylight
11 Dec - 06:51:11 10° N 06:54:26 14° NNE 06:57:38 10° NE daylight
11 Dec - 08:42:26 10° NW 08:48:25 47° NNE 08:54:25 10° ESE daylight
11 Dec - 10:35:54 10° W 10:41:48 44° SSW 10:47:54 10° SE visible
11 Dec - 12:33:17 10° SW 12:35:45 12° SSW 12:38:18 10° S visible
11 Dec - 20:11:55 10° SSW 20:18:33 30° SSE 20:25:12 10° E visible
11 Dec - 22:04:38 10° WSW 22:12:31 88° NNW 22:20:13 10° ENE daylight
12 Dec - 00:00:03 10° W 00:06:32 29° NNW 00:12:48 10° NNE daylight
12 Dec - 02:00:19 10° NNW 02:01:22 10° NNW 02:02:26 10° N daylight
12 Dec - 05:52:06 10° N 05:52:50 10° NNE 05:53:35 10° NNE daylight
12 Dec - 07:41:44 10° NW 07:47:15 31° NNE 07:52:41 10° E daylight
12 Dec - 09:34:30 10° WNW 09:40:42 70° SSW 09:47:00 10° SE daylight
12 Dec - 11:30:07 10° WSW 11:34:19 18° SSW 11:38:38 10° SSE visible
12 Dec - 19:11:30 10° SSW 19:16:58 21° SSE 19:22:31 10° ESE visible
12 Dec - 21:03:20 10° SW 21:11:06 65° SSE 21:18:47 10° ENE visible
12 Dec - 22:57:44 10° W 23:05:01 42° NNW 23:12:06 10° NE daylight
